紫金山第1彗星

62P/Tsuchinshan 1 (2023)

English version
Home page
Updated on December 1, 2023

---------------------------------------------------------------------

・ プロフィール

・ 写真集

・ 軌道要素

Epoch 2023 Feb. 25.0 TT = JDT 2460000.5
T 2023 Dec. 25.05802 TT                                 Rudenko
q   1.2637825            (2000.0)            P               Q
n   0.15932788     Peri.   47.31042     -0.43615269     -0.89657754
a   3.3698317      Node    68.69727     +0.79959145     -0.42535264
e   0.6249716      Incl.    4.73694     +0.41282484     -0.12338496
P   6.19
>From 878 observations 2017 Aug. 10-2023 Sept. 28, mean residual 0".6.
     Nongravitational parameters A1 = +0.03, A2 = -0.1229.

・ 星図

・ 光度変化

        m1 = 9.5 + 5 logΔ + 30.0 log r  [   ,-78]  (              〜2023年10月 8日)
        m1 = 0.9 + 5 logΔ + 75   log r  [-78,  0]  (2023年10月 8日〜2023年12月25日)
        m1 = 5.5 + 5 logΔ + 30.0 log r  [  0,   ]  (2023年12月25日〜              )

---------------------------------------------------------------------

軌道要素はM.P.E.C. 2023-S260に掲載されたものです。
星図はステラナビゲータ Ver.10 (アストロアーツ) で作成したものです。
光度グラフはComet for Windowsで作成したものです。

---------------------------------------------------------------------

Copyright(C) Seiichi Yoshida (comet@aerith.net). All rights reserved.